Total_Precipitation_Accumulation
0.09 0.12 0.17 0.23 0.28 0.32 0.38 0.38 0.39 0.52 0.61 0.59 0.52 0.45 0.44 0.48 0.50 0.50 0.47 0.40 0.33 0.27 0.20 0.17 0.16 0.16 0.13 0.12 0.11 0.10 0.08 0.07 0.07 0.06 0.04 0.02 0.02 0.02 0.02 0.02 0.02 0.02 0.02
0.05 0.07 0.12 0.17 0.21 0.25 0.27 0.32 0.34 0.41 0.45 0.46 0.50 0.57 0.62 0.64 0.65 0.60 0.52 0.46 0.43 0.40 0.34 0.29 0.25 0.22 0.19 0.16 0.15 0.15 0.13 0.12 0.13 0.14 0.16 0.11 0.05 0.03 0.03 0.03 0.03 0.03 0.03
0.02 0.03 0.06 0.11 0.13 0.16 0.21 0.24 0.28 0.32 0.36 0.44 0.57 0.66 0.67 0.60 0.52 0.45 0.41 0.46 0.53 0.52 0.45 0.39 0.38 0.36 0.32 0.27 0.26 0.26 0.25 0.24 0.24 0.24 0.28 0.21 0.10 0.06 0.04 0.03 0.04 0.05 0.05
0.01 0.01 0.03 0.06 0.08 0.09 0.14 0.19 0.23 0.27 0.32 0.39 0.42 0.42 0.41 0.39 0.38 0.43 0.49 0.55 0.55 0.54 0.53 0.51 0.49 0.45 0.43 0.39 0.41 0.45 0.43 0.38 0.29 0.26 0.25 0.27 0.24 0.23 0.14 0.06 0.06 0.07 0.06
0.00 0.00 0.01 0.03 0.04 0.07 0.09 0.14 0.19 0.22 0.26 0.30 0.34 0.39 0.39 0.40 0.44 0.46 0.48 0.49 0.49 0.50 0.51 0.52 0.49 0.43 0.43 0.44 0.48 0.48 0.48 0.45 0.41 0.37 0.36 0.36 0.31 0.29 0.29 0.18 0.09 0.09 0.09
0.00 0.00 0.00 0.02 0.03 0.05 0.07 0.10 0.16 0.22 0.28 0.33 0.35 0.34 0.34 0.35 0.35 0.34 0.36 0.41 0.42 0.40 0.41 0.45 0.46 0.46 0.48 0.50 0.52 0.53 0.55 0.56 0.55 0.50 0.46 0.46 0.42 0.37 0.41 0.39 0.27 0.23 0.20
0.00 0.00 0.00 0.01 0.02 0.04 0.05 0.07 0.10 0.15 0.21 0.26 0.27 0.27 0.30 0.34 0.35 0.35 0.35 0.35 0.33 0.30 0.34 0.41 0.44 0.48 0.50 0.55 0.57 0.55 0.53 0.57 0.57 0.56 0.53 0.51 0.48 0.47 0.53 0.58 0.50 0.43 0.36
0.00 0.00 0.00 0.00 0.01 0.01 0.03 0.04 0.07 0.10 0.13 0.17 0.20 0.23 0.26 0.27 0.27 0.28 0.28 0.29 0.29 0.31 0.35 0.37 0.39 0.41 0.46 0.50 0.52 0.51 0.49 0.50 0.51 0.51 0.50 0.47 0.45 0.45 0.48 0.57 0.66 0.66 0.55
0.00 0.00 0.00 0.00 0.00 0.01 0.01 0.02 0.04 0.06 0.10 0.12 0.14 0.17 0.21 0.23 0.23 0.24 0.26 0.26 0.27 0.28 0.30 0.31 0.31 0.32 0.34 0.37 0.40 0.40 0.39 0.38 0.39 0.39 0.39 0.38 0.36 0.37 0.39 0.46 0.59 0.76 0.75
0.00 0.00 0.00 0.00 0.00 0.00 0.01 0.02 0.03 0.05 0.07 0.09 0.11 0.12 0.14 0.18 0.20 0.22 0.21 0.21 0.21 0.22 0.22 0.23 0.23 0.24 0.24 0.25 0.26 0.27 0.26 0.26 0.26 0.26 0.27 0.29 0.29 0.31 0.34 0.40 0.48 0.61 0.72
0.00 0.00 0.00 0.00 0.00 0.00 0.01 0.01 0.03 0.03 0.04 0.05 0.07 0.09 0.10 0.11 0.12 0.15 0.17 0.17 0.16 0.16 0.16 0.16 0.16 0.16 0.16 0.16 0.18 0.19 0.18 0.18 0.18 0.18 0.20 0.23 0.24 0.27 0.29 0.33 0.38 0.44 0.52
0.00 0.00 0.00 0.00 0.00 0.01 0.01 0.02 0.03 0.03 0.04 0.04 0.05 0.07 0.08 0.08 0.09 0.11 0.11 0.11 0.11 0.11 0.11 0.10 0.09 0.09 0.09 0.10 0.11 0.13 0.14 0.15 0.16 0.17 0.19 0.21 0.24 0.27 0.29 0.31 0.33 0.34 0.35
0.01 0.01 0.01 0.01 0.01 0.02 0.02 0.03 0.03 0.03 0.03 0.04 0.05 0.06 0.06 0.07 0.08 0.09 0.10 0.10 0.11 0.12 0.12 0.10 0.08 0.08 0.07 0.07 0.08 0.10 0.12 0.14 0.17 0.20 0.23 0.25 0.27 0.29 0.29 0.28 0.26 0.25 0.24
0.04 0.03 0.03 0.03 0.03 0.02 0.02 0.02 0.02 0.03 0.03 0.04 0.05 0.06 0.07 0.08 0.09 0.09 0.10 0.10 0.10 0.11 0.11 0.10 0.08 0.08 0.09 0.11 0.11 0.13 0.16 0.19 0.22 0.24 0.27 0.29 0.29 0.28 0.25 0.22 0.20 0.19 0.18
0.05 0.05 0.05 0.05 0.04 0.03 0.03 0.02 0.02 0.03 0.04 0.05 0.06 0.07 0.08 0.08 0.08 0.08 0.08 0.09 0.09 0.09 0.10 0.11 0.11 0.12 0.14 0.17 0.20 0.23 0.27 0.30 0.32 0.32 0.30 0.27 0.25 0.20 0.17 0.16 0.15 0.15 0.17
0.06 0.06 0.05 0.05 0.04 0.05 0.05 0.05 0.04 0.04 0.04 0.06 0.08 0.07 0.07 0.08 0.08 0.08 0.09 0.10 0.11 0.12 0.14 0.17 0.21 0.27 0.31 0.38 0.37 0.33 0.32 0.31 0.28 0.24 0.21 0.19 0.17 0.14 0.13 0.13 0.14 0.19 0.26
0.04 0.04 0.04 0.04 0.04 0.03 0.04 0.03 0.04 0.05 0.06 0.07 0.08 0.08 0.08 0.08 0.08 0.10 0.15 0.19 0.21 0.23 0.27 0.31 0.36 0.40 0.42 0.40 0.31 0.25 0.22 0.22 0.21 0.17 0.13 0.10 0.08 0.07 0.05 0.06 0.11 0.17 0.22
0.03 0.02 0.02 0.03 0.03 0.03 0.03 0.02 0.03 0.05 0.06 0.07 0.10 0.13 0.14 0.18 0.20 0.21 0.25 0.31 0.35 0.37 0.40 0.42 0.44 0.44 0.41 0.35 0.26 0.19 0.15 0.13 0.10 0.08 0.06 0.05 0.04 0.04 0.07 0.13 0.18 0.12 0.08
0.05 0.04 0.04 0.03 0.03 0.03 0.03 0.04 0.05 0.06 0.07 0.08 0.12 0.15 0.17 0.24 0.30 0.31 0.34 0.39 0.43 0.47 0.46 0.43 0.38 0.32 0.26 0.21 0.15 0.10 0.07 0.05 0.04 0.03 0.03 0.05 0.05 0.07 0.19 0.27 0.23 0.10 0.03
0.07 0.07 0.07 0.08 0.09 0.09 0.10 0.11 0.12 0.15 0.18 0.19 0.22 0.27 0.31 0.37 0.41 0.40 0.40 0.39 0.37 0.36 0.32 0.27 0.22 0.18 0.13 0.10 0.06 0.05 0.03 0.03 0.02 0.03 0.03 0.04 0.05 0.14 0.26 0.24 0.19 0.10 0.06
0.12 0.12 0.12 0.14 0.15 0.15 0.17 0.18 0.19 0.25 0.31 0.34 0.36 0.36 0.38 0.39 0.40 0.37 0.34 0.30 0.25 0.20 0.16 0.12 0.10 0.07 0.05 0.03 0.02 0.03 0.04 0.05 0.08 0.07 0.03 0.02 0.10 0.21 0.22 0.16 0.08 0.09 0.16
0.11 0.13 0.14 0.17 0.19 0.21 0.25 0.27 0.29 0.33 0.33 0.33 0.33 0.32 0.31 0.29 0.28 0.26 0.23 0.19 0.15 0.11 0.08 0.05 0.04 0.02 0.02 0.01 0.01 0.03 0.07 0.11 0.11 0.07 0.04 0.07 0.16 0.15 0.09 0.04 0.04 0.11 0.10
0.10 0.12 0.16 0.18 0.21 0.22 0.26 0.28 0.28 0.27 0.26 0.26 0.24 0.21 0.17 0.16 0.15 0.13 0.11 0.09 0.08 0.06 0.04 0.03 0.02 0.02 0.01 0.01 0.01 0.03 0.08 0.12 0.10 0.09 0.13 0.15 0.10 0.04 0.01 0.01 0.03 0.04 0.02
0.08 0.09 0.11 0.12 0.13 0.14 0.16 0.18 0.17 0.16 0.15 0.14 0.14 0.12 0.09 0.07 0.06 0.05 0.04 0.03 0.03 0.02 0.02 0.02 0.02 0.02 0.02 0.01 0.01 0.04 0.07 0.09 0.10 0.13 0.13 0.06 0.01 0.00 0.00 0.01 0.00 0.01 0.02
0.07 0.07 0.08 0.08 0.08 0.08 0.09 0.09 0.08 0.08 0.08 0.08 0.07 0.07 0.05 0.05 0.05 0.04 0.04 0.03 0.03 0.03 0.03 0.02 0.03 0.03 0.03 0.03 0.09 0.12 0.10 0.14 0.16 0.15 0.05 0.01 0.00 0.01 0.01 0.01 0.01 0.01 0.02
0.06 0.07 0.07 0.08 0.09 0.08 0.07 0.06 0.06 0.06 0.06 0.07 0.07 0.07 0.06 0.06 0.06 0.05 0.05 0.05 0.05 0.05 0.04 0.04 0.04 0.03 0.04 0.07 0.10 0.12 0.15 0.17 0.13 0.07 0.01 0.02 0.02 0.03 0.03 0.03 0.03 0.02 0.04